Tracking 31033 objects as of 14-Jul-2025
HD Live streaming from Space Station
objects crossing your sky now

FENGYUN 1C DEB

Track FENGYUN 1C DEB now!
10-day predictions


NORAD ID: 32198
Int'l Code: 1999-025CUU
Perigee: 804.4 km
Apogee: 944.5 km
Inclination: 98.3 °
Period: 102.3 minutes
Semi major axis: 7245 km
RCS: 0.0075 m2 (small)
Launch date: May 10, 1999
Source: People's Republic of China (PRC)
Launch site: Taiyaun Space Center, China (TSC)

Note: This is SATELLITE DEBRIS
Your satellite tracking list
Your tracking list is empty




NASA's NSSDC Master Catalog

Two Line Element Set (TLE):
1 32198U 99025CUU 25188.69463686  .00001626  00000-0  94378-3 0  9999
2 32198  98.3379 347.4255 0096723  25.3967 335.1912 14.07685888547211
Source of the keplerian elements: AFSPC